Home   Weather   Shantou   Past weeks

Flag for China Past Weather in Shantou, Guangdong, China — Yesterday and Last 2 Weeks

Now
68 °F

Passing clouds.


Feels Like: 68 °F
Forecast: 66 / 77 °F
Wind: 3 mph from East

Location: Shantou Airport

Current Time: Dec 3, 2016 at 11:47:21 pm

Latest Report: Dec 3, 2016 at 11:00 pm


Visibility: N/A

Pressure: 30.15 "Hg

Humidity: 78%

Dew Point: 61 °F

Location of ShantouLocation

Past Weather in Shantou — Graph

°F

Shantou Temperature Yesterday

Maximum temperature yesterday: 73 °F (at 1:00 pm)
Minimum temperature yesterday: 63 °F (at 7:00 am)
Average temperature yesterday: 68 °F

High & Low Weather Summary for the Past Weeks

 TemperatureHumidityPressure
High84 °F (Nov 19, 12:00 pm)100% (Nov 20, 1:00 am)30.27 "Hg (Nov 20, 1:00 am)
Low52 °F (Nov 28, 6:00 am)46% (Nov 28, 1:00 pm)29.89 "Hg (Nov 19, 3:00 pm)
Average67 °F81%30.09 "Hg
* Reported Nov 18 10:00 pm — Dec 3 10:00 pm, Shantou, Weather by CustomWeather, © 2016

Note: Actual official high and low records may vary slightly from our data, if they occured in-between our weather recording intervals... More about our weather records

Advertising

Shantou Weather History for the Previous 24 Hours

Scroll right to see more
 ConditionsComfort  
Time TempWeatherWind HumidityBarometerVisibility
10:00 pm
Sat, Dec 3
68 °FClear.1 mph78%30.15 "Hg10 mi
9:00 pm68 °FPassing clouds.3 mph78%30.15 "HgN/A
8:00 pm68 °FPassing clouds.3 mph78%30.12 "HgN/A
7:00 pm68 °FClear.6 mph78%30.12 "Hg10 mi
6:00 pm70 °FPassing clouds.6 mph69%30.12 "HgN/A
5:00 pm72 °FSunny.6 mph65%30.09 "Hg10 mi
4:00 pm75 °FPassing clouds.3 mph57%30.09 "HgN/A
3:00 pm75 °FPassing clouds.3 mph54%30.09 "HgN/A
2:00 pm73 °FSunny.3 mph57%30.12 "Hg10 mi
1:00 pm73 °FSunny.1 mph53%30.15 "Hg10 mi
12:00 pm72 °FSunny.3 mph57%30.18 "Hg10 mi
11:00 am72 °FSunny.1 mph57%30.21 "Hg10 mi
10:00 am68 °FPassing clouds.3 mph64%30.24 "HgN/A
9:00 am68 °FPassing clouds.3 mph64%30.24 "HgN/A
8:00 am64 °FClear.3 mph83%30.24 "Hg4 mi
7:00 am63 °FFog.1 mph88%30.21 "Hg3 mi
6:00 am61 °FClear.No wind88%30.21 "Hg4 mi
5:00 am61 °FClear.1 mph88%30.18 "Hg4 mi
4:00 am61 °FClear.1 mph88%30.18 "Hg4 mi
3:00 am61 °FClear.1 mph88%30.18 "Hg4 mi
2:00 am63 °FClear.1 mph83%30.18 "Hg5 mi
1:00 am66 °FPassing clouds.3 mph68%30.18 "HgN/A
12:00 am66 °FClear.6 mph68%30.21 "Hg10 mi
11:00 pm
Fri, Dec 2
66 °FClear.3 mph73%30.21 "Hg5 mi
Weather by CustomWeather, © 2016

See weather overviewHow to use our weather pages